Home   Weather   Egersund   Past weeks

Flag for Norway Past Weather in Egersund, Norway — Yesterday and Last 2 Weeks

Now
42 °F

Quite cool.


Feels Like: 42 °F
Forecast: 43 / 56 °F
Wind: 1 mph from Northeast

Location: Ualand-Bjuland

Current Time: May 1, 2017 at 6:35:19 am

Latest Report: May 1, 2017 at 6:00 am


Visibility: N/A

Pressure: 30.17 "Hg

Humidity: 62%

Dew Point: 30 °F

Location of EgersundLocation

Past Weather in Egersund — Graph

°F

Egersund Temperature Yesterday

Maximum temperature yesterday: 53 °F (at 3:00 pm)
Minimum temperature yesterday: 26 °F (at 5:00 am)
Average temperature yesterday: 42 °F

High & Low Weather Summary for the Past Weeks

 TemperatureHumidityPressure
High53 °F (Apr 30, 3:00 pm)100% (Apr 17, 7:00 am)30.62 "Hg (Apr 17, 7:00 am)
Low24 °F (Apr 19, 6:00 am)35% (Apr 26, 11:00 am)29.47 "Hg (Apr 24, 5:00 am)
Average40 °F73%30.01 "Hg
* Reported Apr 16 4:00 am — May 1 4:00 am, Egersund, Weather by CustomWeather, © 2017

Note: Actual official high and low records may vary slightly from our data, if they occured in-between our weather recording intervals... More about our weather records

Advertising

Egersund Weather History for the Previous 24 Hours

Scroll right to see more
 ConditionsComfort  
Time TempWeatherWind HumidityBarometerVisibility
4:00 am
Mon, May 1
42 °FQuite cool.2 mph71%30.15 "HgN/A
3:00 am42 °FQuite cool.3 mph75%30.16 "HgN/A
2:00 am42 °FQuite cool.2 mph74%30.16 "HgN/A
1:00 am44 °FQuite cool.2 mph70%30.16 "HgN/A
12:00 am45 °FQuite cool.1 mph67%30.15 "HgN/A
11:00 pm
Sun, Apr 30
46 °FCool.1 mph60%30.14 "HgN/A
10:00 pm44 °FQuite cool.1 mph64%30.13 "HgN/A
9:00 pm48 °FCool.2 mph51%30.11 "HgN/A
8:00 pm49 °FPassing clouds.3 mph51%30.09 "Hg47 mi
7:00 pm48 °FCool.5 mph56%30.09 "HgN/A
6:00 pm51 °FCool.5 mph51%30.09 "HgN/A
5:00 pm51 °FCool.6 mph54%30.10 "HgN/A
4:00 pm51 °FCool.7 mph50%30.10 "HgN/A
3:00 pm53 °FCool.5 mph44%30.11 "HgN/A
2:00 pm52 °FScattered clouds.6 mph46%30.12 "Hg47 mi
1:00 pm52 °FCool.5 mph49%30.12 "HgN/A
12:00 pm51 °FCool.5 mph50%30.13 "HgN/A
11:00 am49 °FCool.5 mph53%30.14 "HgN/A
10:00 am43 °FQuite cool.1 mph63%30.16 "HgN/A
9:00 am40 °FChilly.No wind69%30.17 "HgN/A
8:00 am35 °FSunny.No wind83%30.19 "Hg37 mi
7:00 am29 °FChilly.1 mph95%30.19 "HgN/A
6:00 am27 °FChilly.1 mph94%30.20 "HgN/A
Weather by CustomWeather, © 2017

See weather overviewHow to use our weather pages